Hourly Data Report for September 30, 2017

All times are specified in Local Standard Time (LST). Add 1 hour to adjust for Daylight Saving Time where and when it is observed.

QIKIQTARJUAQ A
NUNAVUT

67°32'48.000" N
64°01'54.000" W
5.50 m
2400577
YVM

Download Data

Hourly Data (September 2017)
Hourly Data Report for September 30, 2017
Temp Definition
°C
Dew Point Temp Definition
°C
Rel Hum Definition
%
Wind Dir Definition
10's deg

Wind Spd Definition
km/h
Visibility Definition
km
Stn Press Definition
kPa
Hmdx Definition


Wind Chill Definition


Weather Definition


TIME
00:00 Legend Double Dagger -2.2 -11.5 49   0 16.1 100.31     LegendNANA
01:00 Legend Double Dagger -2.7 -9.1 62 18 11 16.1 100.26   -7 LegendNANA
02:00 Legend Double Dagger -2.4 -10.6 54 18 8 16.1 100.23   -6 LegendNANA
03:00 Legend Double Dagger -2.1 -10.0 55 32 5 16.1 100.20   -4 LegendNANA
04:00 Legend Double Dagger -2.8 -8.7 64 27 8 16.1 100.15   -6 LegendNANA
05:00 Legend Double Dagger -2.3 -6.9 71 32 21 16.1 100.08   -8 LegendNANA
06:00 Legend Double Dagger -2.5 -7.2 71 32 15 16.1 100.04   -7 LegendNANA
07:00 Legend Double Dagger -2.3 -7.9 66 31 15 16.1 99.98   -7 LegendNANA
08:00 Legend Double Dagger -2.6 -7.6 69 18 11 16.1 99.93   -7 LegendNANA
09:00 Legend Double Dagger -2.3 -7.9 65 18 9 16.1 99.87   -6 LegendNANA
10:00 Legend Double Dagger -1.7 -9.2 57 LegendMM 4 16.1 99.81   -3 LegendNANA
11:00 Legend Double Dagger -1.7 -8.2 61 20 11 16.1 99.74   -6 LegendNANA
12:00 Legend Double Dagger -1.6 -7.5 64 20 17 16.1 99.72   -7 LegendNANA
13:00 Legend Double Dagger -1.6 -7.3 65 19 17 16.1 99.71   -7 LegendNANA
14:00 Legend Double Dagger -1.8 -7.3 66 LegendMM 4 16.1 99.73   -3 LegendNANA
15:00 Legend Double Dagger -2.7 -7.8 68 13 13 16.1 99.75   -7 LegendNANA
16:00 Legend Double Dagger -4.0 -8.3 72 13 11 16.1 99.78   -8 LegendNANA
17:00 Legend Double Dagger -4.0 -7.8 75 11 5 16.1 99.85   -6 LegendNANA
18:00 Legend Double Dagger -4.0 -7.1 79 13 8 16.1 99.92   -7 LegendNANA
19:00 Legend Double Dagger -2.7 -5.9 79   0 16.1 99.97     LegendNANA
20:00 Legend Double Dagger -1.6 -4.1 83 34 8 16.1 100.05   -5 LegendNANA
21:00 Legend Double Dagger -0.5 -4.0 78 32 11 16.1 100.10   -4 LegendNANA
22:00 Legend Double Dagger -0.5 -3.7 79 LegendMM 4 16.1 100.15   -2 LegendNANA
23:00 Legend Double Dagger -0.7 -2.0 91 33 8 4.8 100.20   -4 Snow

Notes on Data Quality.

Legend

  • E = Estimated
  • M = Missing
  • NA = Not Available
  • ‡ = Partner data that is not subject to review by the National Climate Archives
Date modified: